GW3914 Weather Reports


time (UTC)temp
C
wind
direction
speed
KPH
gust
KPH
rain 1hr
cm
rain 24hr
cm
rain mn
cm
humidity
%
barometer
mb
20260503193300 26 344 3.2 3.2 0.00 0.00 0.00 54 1015.2
20260503192756 25 315 3.2 3.2 0.00 0.00 0.00 58 1015.4
20260503192251 25 322 0.0 3.2 0.00 0.00 0.00 59 1015.5
20260503191748 25 306 3.2 4.8 0.00 0.00 0.00 55 1015.5
20260503191245 26 319 4.8 8.0 0.00 0.00 0.00 53 1015.5
20260503190742 26 328 3.2 8.0 0.00 0.00 0.00 56 1015.6
20260503190239 25 325 4.8 8.0 0.00 0.00 0.00 55 1015.6
20260503185737 25 346 4.8 8.0 0.00 0.00 0.00 55 1015.6
20260503185232 25 319 1.6 3.2 0.00 0.00 0.00 55 1015.7
20260503184727 25 333 1.6 4.8 0.00 0.00 0.00 52 1015.9
20260503184223 24 331 1.6 3.2 0.00 0.00 0.00 56 1015.8
20260503183720 24 271 6.4 8.0 0.00 0.00 0.00 55 1016.0
20260503183217 23 328 4.8 8.0 0.00 0.00 0.00 56 1015.9
20260503182716 23 50 8.0 14.5 0.00 0.00 0.00 55 1015.9
20260503182214 23 280 4.8 4.8 0.00 0.00 0.00 57 1015.9
20260503181709 23 354 6.4 8.0 0.00 0.00 0.00 56 1016.1
20260503181207 23 302 0.0 0.0 0.00 0.00 0.00 58 1016.1
20260503180703 23 332 3.2 4.8 0.00 0.00 0.00 58 1016.2
20260503180202 23 317 4.8 4.8 0.00 0.00 0.00 57 1016.1
20260503175658 23 250 4.8 4.8 0.00 0.00 0.00 57 1016.0
20260503175156 22 60 8.0 8.0 0.00 0.00 0.00 60 1016.2
20260503174651 23 291 4.8 8.0 0.00 0.00 0.00 56 1016.3
20260503174149 22 311 1.6 3.2 0.00 0.00 0.00 60 1016.2
20260503173644 22 337 6.4 8.0 0.00 0.00 0.00 58 1016.3
20260503173141 22 327 3.2 3.2 0.00 0.00 0.00 58 1016.4
20260503172638 22 0 8.0 8.0 0.00 0.00 0.00 59 1016.5
20260503172135 22 274 6.4 8.0 0.00 0.00 0.00 60 1016.3
20260503171631 22 350 4.8 4.8 0.00 0.00 0.00 58 1016.2
20260503171129 22 353 6.4 8.0 0.00 0.00 0.00 61 1016.3
20260503170626 22 266 6.4 8.0 0.00 0.00 0.00 61 1016.2
20260503170122 22 290 4.8 4.8 0.00 0.00 0.00 60 1016.3
20260503150514 18 317 0.0 0.0 0.00 0.00 0.00 66 1016.6
20260503131401 11 325 0.0 0.0 0.00 0.00 0.00 86 1016.5
20260503130858 11 325 1.6 3.2 0.00 0.00 0.00 86 1016.5
20260503130356 11 302 0.0 0.0 0.00 0.00 0.00 84 1016.5
20260503110750 11 306 0.0 0.0 0.00 0.00 0.00 87 1016.5
20260503110247 11 303 0.0 0.0 0.00 0.00 0.00 89 1016.8
20260503100213 13 320 0.0 0.0 0.00 0.00 0.00 82 1016.9
20260503090137 14 301 0.0 3.2 0.00 0.00 0.00 83 1017.0
20260503081608 14 296 0.0 0.0 0.00 0.00 0.00 88 1017.1
20260503081105 14 275 0.0 0.0 0.00 0.00 0.00 88 1017.2
20260503080601 13 296 0.0 0.0 0.00 0.00 0.00 90 1017.1
20260503072539 15 287 1.6 3.2 0.00 0.00 0.00 88 1017.3
20260503072036 14 284 0.0 3.2 0.00 0.00 0.00 89 1017.2
20260503071533 14 292 0.0 0.0 0.00 0.00 0.00 90 1017.2
20260503071030 14 309 0.0 3.2 0.00 0.00 0.00 90 1017.1
20260503070526 14 297 0.0 0.0 0.00 0.00 0.00 90 1017.0
20260503054945 16 291 0.0 3.2 0.00 0.00 0.00 87 1016.7
20260503054441 15 262 0.0 3.2 0.00 0.00 0.00 87 1016.7
20260503053939 15 307 1.6 3.2 0.00 0.00 0.00 87 1016.8
20260503053437 15 296 0.0 0.0 0.00 0.00 0.00 87 1016.9
20260503052933 15 283 0.0 3.2 0.00 0.00 0.00 86 1016.9
20260503052431 15 288 1.6 3.2 0.00 0.00 0.00 86 1016.9
20260503051927 15 292 0.0 0.0 0.00 0.00 0.00 86 1016.7
20260503051423 15 291 0.0 3.2 0.00 0.00 0.00 86 1016.8
20260503050920 15 294 0.0 0.0 0.00 0.00 0.00 86 1016.8
20260503050416 15 294 0.0 0.0 0.00 0.00 0.00 86 1016.8
20260503045914 15 297 0.0 0.0 0.00 0.00 0.00 86 1016.8
20260503045411 15 297 0.0 0.0 0.00 0.00 0.00 85 1016.7
20260503044908 15 297 0.0 0.0 0.00 0.00 0.00 84 1016.7
20260503044405 16 297 0.0 0.0 0.00 0.00 0.00 84 1016.5
20260503043902 16 297 0.0 0.0 0.00 0.00 0.00 84 1016.5
20260503043358 16 297 0.0 0.0 0.00 0.00 0.00 83 1016.6
20260503042855 16 296 0.0 0.0 0.00 0.00 0.00 81 1016.4
20260503042351 16 298 0.0 0.0 0.00 0.00 0.00 81 1016.4
20260503041847 16 298 0.0 0.0 0.00 0.00 0.00 81 1016.3
20260503041345 17 298 0.0 0.0 0.00 0.00 0.00 81 1016.4
20260503040842 17 301 0.0 3.2 0.00 0.00 0.00 81 1016.3
20260503040340 17 300 0.0 3.2 0.00 0.00 0.00 80 1016.4
20260503035837 17 302 0.0 0.0 0.00 0.00 0.00 80 1016.0
20260503035334 17 302 0.0 0.0 0.00 0.00 0.00 79 1015.8
20260503034831 18 302 0.0 0.0 0.00 0.00 0.00 79 1015.9
20260503034328 18 302 0.0 0.0 0.00 0.00 0.00 77 1015.9
20260503033826 18 302 0.0 0.0 0.00 0.00 0.00 76 1015.7
20260503033323 18 302 0.0 0.0 0.00 0.00 0.00 75 1015.8
20260503032821 18 310 0.0 0.0 0.00 0.00 0.00 75 1015.6
20260503032320 20 311 0.0 0.0 0.00 0.00 0.00 72 1015.6
20260503031816 20 311 0.0 0.0 0.00 0.00 0.00 70 1015.5
20260503031314 20 311 0.0 0.0 0.00 0.00 0.00 70 1015.6
20260503030810 20 310 0.0 0.0 0.00 0.00 0.00 69 1015.3
20260503030307 20 315 1.6 3.2 0.00 0.00 0.00 69 1015.4
20260503025803 20 312 0.0 0.0 0.00 0.00 0.00 67 1015.4
20260503025301 20 313 0.0 0.0 0.00 0.00 0.00 67 1015.4
20260503024758 21 313 0.0 0.0 0.00 0.00 0.00 67 1015.5
20260503024255 21 307 0.0 0.0 0.00 0.00 0.00 65 1015.2
20260503023752 22 302 0.0 0.0 0.00 0.00 0.00 63 1015.1
20260503023249 22 326 0.0 0.0 0.00 0.00 0.00 57 1015.2
20260503022745 22 317 1.6 3.2 0.00 0.00 0.00 56 1015.3
20260503022240 23 329 3.2 3.2 0.00 0.00 0.00 56 1015.3
20260503021737 23 330 3.2 3.2 0.00 0.00 0.00 55 1015.2
20260503021233 23 340 6.4 8.0 0.00 0.00 0.00 55 1015.1
20260503020731 23 24 4.8 4.8 0.00 0.00 0.00 55 1015.2
20260503020228 23 327 3.2 4.8 0.00 0.00 0.00 56 1015.2
20260503015725 23 340 3.2 4.8 0.00 0.00 0.00 57 1015.1
20260503015222 23 335 4.8 4.8 0.00 0.00 0.00 56 1015.2
20260503014717 23 336 6.4 8.0 0.00 0.00 0.00 56 1015.2
20260503014216 23 338 3.2 4.8 0.00 0.00 0.00 56 1015.1
20260503013712 23 343 6.4 8.0 0.00 0.00 0.00 57 1015.1
20260503013210 24 330 6.4 8.0 0.00 0.00 0.00 57 1015.1
20260503012708 24 326 6.4 8.0 0.00 0.00 0.00 57 1015.0
20260503012204 23 22 6.4 8.0 0.00 0.00 0.00 56 1015.2
20260503011700 23 333 8.0 11.3 0.00 0.00 0.00 57 1015.2
20260503011158 24 331 6.4 8.0 0.00 0.00 0.00 56 1015.3
20260503010653 25 336 4.8 4.8 0.00 0.00 0.00 55 1015.4
20260503010151 25 336 9.7 14.5 0.00 0.00 0.00 56 1015.3
20260503005648 25 297 3.2 3.2 0.00 0.00 0.00 54 1015.2
20260503005145 25 339 4.8 4.8 0.00 0.00 0.00 55 1015.4
20260503004641 25 7 4.8 4.8 0.00 0.00 0.00 55 1015.2
20260503004140 25 333 3.2 4.8 0.00 0.00 0.00 54 1015.3
20260503003636 24 319 3.2 4.8 0.00 0.00 0.00 57 1015.4
20260503003133 24 321 4.8 4.8 0.00 0.00 0.00 57 1015.5
20260503002630 25 156 8.0 8.0 0.00 0.00 0.00 57 1015.3
20260503002127 25 328 3.2 4.8 0.00 0.00 0.00 55 1015.4
20260503001623 25 351 3.2 4.8 0.00 0.00 0.00 56 1015.5
20260503001120 25 69 6.4 8.0 0.00 0.00 0.00 55 1015.6
20260503000618 25 325 0.0 3.2 0.00 0.00 0.00 55 1015.4
20260503000115 25 339 8.0 11.3 0.00 0.00 0.00 54 1015.6
20260502235611 25 0 8.0 11.3 0.00 0.00 0.00 56 1015.5
20260502235109 24 341 9.7 14.5 0.00 0.00 0.00 59 1015.7
20260502234605 25 314 1.6 3.2 0.00 0.00 0.00 60 1015.7
20260502234103 24 313 3.2 3.2 0.00 0.00 0.00 60 1015.7
20260502233603 24 294 0.0 3.2 0.00 0.00 0.00 60 1015.9
20260502233100 23 314 1.6 3.2 0.00 0.00 0.00 62 1015.7
20260502232556 23 294 3.2 4.8 0.00 0.00 0.00 63 1015.8
20260502232054 23 323 3.2 4.8 0.00 0.00 0.00 63 1016.2
20260502231550 23 300 4.8 11.3 0.00 0.00 0.00 64 1016.1
20260502231048 22 347 3.2 4.8 0.00 0.00 0.00 62 1016.1
20260502230546 22 340 6.4 8.0 0.00 0.00 0.00 62 1016.1
20260502230045 22 318 0.0 3.2 0.00 0.00 0.00 63 1016.2
20260502225540 22 325 6.4 8.0 0.00 0.00 0.00 61 1016.3
20260502225038 22 355 6.4 8.0 0.00 0.00 0.00 61 1016.3
20260502224533 23 335 4.8 4.8 0.00 0.00 0.00 60 1016.5
20260502224030 23 8 4.8 4.8 0.00 0.00 0.00 60 1016.3
20260502223528 23 354 3.2 4.8 0.00 0.00 0.00 59 1016.7
20260502223026 24 325 9.7 11.3 0.00 0.00 0.00 58 1016.6
20260502222523 23 339 6.4 11.3 0.00 0.00 0.00 63 1016.7
20260502222020 23 328 3.2 4.8 0.00 0.00 0.00 61 1016.9
20260502221515 23 0 4.8 11.3 0.00 0.00 0.00 60 1016.8
20260502221013 23 359 9.7 11.3 0.00 0.00 0.00 62 1016.8
20260502220508 23 315 3.2 4.8 0.00 0.00 0.00 62 1016.9
20260502220005 23 343 3.2 3.2 0.00 0.00 0.00 64 1017.0
20260502215503 23 351 8.0 11.3 0.00 0.00 0.00 59 1016.9
20260502214959 22 165 8.0 8.0 0.00 0.00 0.00 61 1017.1
20260502214456 22 346 3.2 4.8 0.00 0.00 0.00 61 1017.1
20260502213953 22 63 9.7 14.5 0.00 0.00 0.00 64 1017.0
20260502213450 22 318 4.8 4.8 0.00 0.00 0.00 61 1017.2
20260502212948 22 325 6.4 8.0 0.00 0.00 0.00 62 1017.1
20260502212447 22 344 8.0 8.0 0.00 0.00 0.00 63 1017.2
20260502211944 23 328 3.2 4.8 0.00 0.00 0.00 61 1017.3
20260502211439 23 337 4.8 8.0 0.00 0.00 0.00 62 1017.3
20260502210937 22 307 0.0 0.0 0.00 0.00 0.00 65 1017.3
20260502210434 22 245 9.7 11.3 0.00 0.00 0.00 62 1017.4
20260502205931 22 311 8.0 11.3 0.00 0.00 0.00 61 1017.3
20260502205427 22 317 8.0 14.5 0.00 0.00 0.00 67 1017.2
20260502204924 22 312 3.2 3.2 0.00 0.00 0.00 64 1017.6
20260502204421 21 287 3.2 4.8 0.00 0.00 0.00 69 1017.4
20260502203919 21 325 8.0 11.3 0.00 0.00 0.00 67 1017.5
20260502203416 21 342 9.7 11.3 0.00 0.00 0.00 66 1017.6
20260502202912 21 354 6.4 8.0 0.00 0.00 0.00 67 1017.6
20260502202409 21 332 4.8 8.0 0.00 0.00 0.00 67 1017.6
20260502201907 21 322 1.6 3.2 0.00 0.00 0.00 70 1017.6
20260502201403 20 316 3.2 4.8 0.00 0.00 0.00 69 1017.8
20260502200900 21 295 3.2 3.2 0.00 0.00 0.00 67 1017.8
20260502200355 21 299 3.2 3.2 0.00 0.00 0.00 70 1018.1
20260502195854 21 327 0.0 3.2 0.00 0.00 0.00 67 1018.0
20260502195350 21 1 8.0 11.3 0.00 0.00 0.00 64 1017.9
20260502194847 21 315 0.0 0.0 0.00 0.00 0.00 66 1018.1
20260502194343 21 303 1.6 3.2 0.00 0.00 0.00 66 1018.2
20260502193839 21 334 1.6 3.2 0.00 0.00 0.00 66 1018.2